This is the latest recevied weather packets stored in our database for station/object KQ4PPF. If no packets are shown the sender has not sent any weather packets the latest 10 day(s).
| Time | Temp. | Humidity | Pressure | Rain* | Wind** | Luminosity | Snow |
|---|---|---|---|---|---|---|---|
| 1777648125 | 18.89° C | 54% | 1014.8 hPa | 0 mm | - | 830 W/m² | - |
| 1777647822 | 18.33° C | 57% | 1015 hPa | 0 mm | - | 751 W/m² | - |
| 1777647518 | 17.78° C | 55% | 1015.2 hPa | 0 mm | - | 317 W/m² | - |
| 1777647215 | 17.22° C | 57% | 1015.2 hPa | 0 mm | - | 380 W/m² | - |
| 1777646912 | 16.67° C | 59% | 1015.3 hPa | 0 mm | - | 258 W/m² | - |
| 1777646608 | 16.67° C | 60% | 1015.2 hPa | 0 mm | - | 181 W/m² | - |
| 1777646304 | 16.11° C | 60% | 1015.2 hPa | 0 mm | - | 393 W/m² | - |
| 1777646001 | 15.56° C | 58% | 1015.2 hPa | 0 mm | - | 315 W/m² | - |
| 1777645698 | 15.56° C | 60% | 1015.3 hPa | 0 mm | - | 298 W/m² | - |
| 1777645394 | 15.56° C | 60% | 1015.1 hPa | 0 mm | - | 204 W/m² | - |
| 1777645090 | 15.56° C | 62% | 1015 hPa | 0 mm | - | 222 W/m² | - |
| 1777644786 | 15.56° C | 61% | 1015.1 hPa | 0 mm | - | 196 W/m² | - |
| 1777644485 | 15.56° C | 61% | 1014.8 hPa | 0 mm | - | 163 W/m² | - |
| 1777644181 | 15.56° C | 62% | 1014.6 hPa | 0 mm | - | 167 W/m² | - |
| 1777643877 | 15° C | 64% | 1014.9 hPa | 0 mm | - | 177 W/m² | - |
| 1777643575 | 15° C | 67% | 1014.9 hPa | 0 mm | - | 192 W/m² | - |
| 1777643271 | 15° C | 66% | 1014.7 hPa | 0 mm | - | 135 W/m² | - |
| 1777642968 | 14.44° C | 66% | 1014.7 hPa | 0 mm | - | 98 W/m² | - |
| 1777642664 | 14.44° C | 68% | 1014.8 hPa | 0 mm | - | 90 W/m² | - |
| 1777642361 | 13.89° C | 68% | 1014.8 hPa | 0 mm | - | 83 W/m² | - |
| 1777642058 | 13.89° C | 68% | 1014.8 hPa | 0 mm | - | 52 W/m² | - |
| 1777641754 | 13.33° C | 69% | 1014.5 hPa | 0 mm | - | 50 W/m² | - |
| 1777641454 | 13.33° C | 70% | 1014.8 hPa | 0 mm | - | 57 W/m² | - |
| 1777641150 | 12.78° C | 69% | 1014.8 hPa | 0 mm | - | 51 W/m² | - |
| 1777640845 | 12.78° C | 69% | 1014.5 hPa | 0 mm | - | 55 W/m² | - |
* Rain latest hour (hover to see other rain measurements)
** Current wind speed in m/s (hover to see current wind gust speed)